Time,TemperatureF,DewpointF,PressureIn,WindDirection,WindDirectionDegrees,WindSpeedMPH,WindSpeedGustMPH,Humidity,HourlyPrecipIn,Conditions,Clouds,dailyrainin,SolarRadiationWatts/m^2,SoftwareType,DateUTC
2013-04-15 07:05:00,44.6,13.5,0.00,WNW,292,3.4,3.4,28,-99.99,,---,-99.99,0.00,VWS V14.01,2013-04-15 12:05:00,
2013-04-15 07:12:00,44.6,14.3,0.00,West,270,3.8,3.8,29,-99.99,,---,-99.99,0.00,VWS V14.01,2013-04-15 12:12:00,
2013-04-15 07:17:00,44.6,14.3,29.74,West,270,3.8,3.8,29,-99.99,,---,-99.99,0.00,VWS V14.01,2013-04-15 12:17:00,
2013-04-15 07:23:00,44.6,14.3,29.74,West,270,3.1,3.1,29,-99.99,,---,-99.99,0.00,VWS V14.01,2013-04-15 12:23:00,
2013-04-15 07:28:00,44.6,15.1,29.74,West,270,3.8,4.0,30,-99.99,,---,-99.99,0.00,VWS V14.01,2013-04-15 12:28:00,
2013-04-15 07:34:00,44.8,15.3,29.74,West,270,4.0,4.7,30,-99.99,,---,-99.99,0.00,VWS V14.01,2013-04-15 12:34:00,
2013-04-15 07:40:00,45.3,15.7,29.74,WNW,292,4.0,4.3,30,-99.99,,---,-99.99,0.00,VWS V14.01,2013-04-15 12:40:00,
2013-04-15 07:46:00,45.9,16.2,29.74,WNW,292,6.0,6.0,30,-99.99,,---,-99.99,0.00,VWS V14.01,2013-04-15 12:46:00,
2013-04-15 07:52:00,46.0,14.8,29.74,WNW,292,5.4,6.3,28,-99.99,,---,-99.99,0.00,VWS V14.01,2013-04-15 12:52:00,
2013-04-15 07:58:00,46.4,15.1,29.74,WNW,292,6.5,6.5,28,-99.99,,---,-99.99,0.00,VWS V14.01,2013-04-15 12:58:00,
2013-04-15 08:03:00,46.6,15.2,29.74,WNW,292,8.5,8.5,28,-99.99,,---,-99.99,0.00,VWS V14.01,2013-04-15 13:03:00,
2013-04-15 08:08:00,46.8,14.6,29.74,West,270,5.6,7.8,27,-99.99,,---,-99.99,0.00,VWS V14.01,2013-04-15 13:08:00,
2013-04-15 08:14:00,47.1,14.9,29.74,WNW,292,6.0,7.6,27,-99.99,,---,-99.99,0.00,VWS V14.01,2013-04-15 13:14:00,
2013-04-15 08:19:00,47.1,14.9,29.74,WNW,292,6.5,6.5,27,-99.99,,---,-99.99,0.00,VWS V14.01,2013-04-15 13:19:00,
2013-04-15 08:24:00,47.3,15.0,29.74,WNW,292,6.0,6.0,27,-99.99,,---,-99.99,0.00,VWS V14.01,2013-04-15 13:24:00,
2013-04-15 08:30:00,47.3,15.0,29.74,WNW,292,7.4,7.4,27,-99.99,,---,-99.99,0.00,VWS V14.01,2013-04-15 13:30:00,
2013-04-15 08:35:00,47.8,12.8,29.74,WNW,292,7.4,8.1,24,-99.99,,---,-99.99,0.00,VWS V14.01,2013-04-15 13:35:00,
2013-04-15 08:41:00,48.2,13.1,29.74,NW,315,6.3,7.6,24,-99.99,,---,-99.99,0.00,VWS V14.01,2013-04-15 13:41:00,
2013-04-15 08:47:00,48.4,10.3,29.76,WNW,292,7.4,7.4,21,-99.99,,---,-99.99,0.00,VWS V14.01,2013-04-15 13:47:00,
2013-04-15 08:53:00,48.6,10.4,29.76,NNW,338,8.7,8.7,21,-99.99,,---,-99.99,0.00,VWS V14.01,2013-04-15 13:53:00,
2013-04-15 09:01:00,48.6,10.4,29.76,NNW,338,6.0,6.0,21,-99.99,,---,-99.99,0.00,VWS V14.01,2013-04-15 14:01:00,
2013-04-15 09:07:00,48.6,13.4,29.76,North,0,4.9,5.8,24,-99.99,,---,-99.99,0.00,VWS V14.01,2013-04-15 14:07:00,
2013-04-15 09:12:00,48.6,10.4,29.79,NNW,338,7.6,10.5,21,-99.99,,---,-99.99,0.00,VWS V14.01,2013-04-15 14:12:00,
2013-04-15 09:18:00,48.6,10.4,29.79,NW,315,7.2,7.2,21,-99.99,,---,-99.99,0.00,VWS V14.01,2013-04-15 14:18:00,
2013-04-15 09:25:00,48.4,10.3,29.79,NW,315,8.7,10.1,21,-99.99,,---,-99.99,0.00,VWS V14.01,2013-04-15 14:25:00,
2013-04-15 09:31:00,47.8,10.9,29.79,NNW,338,10.3,10.3,22,-99.99,,---,-99.99,0.00,VWS V14.01,2013-04-15 14:31:00,
2013-04-15 09:37:00,47.7,10.7,29.79,NNW,338,5.6,10.7,22,-99.99,,---,-99.99,0.00,VWS V14.01,2013-04-15 14:37:00,
2013-04-15 09:43:00,47.5,10.6,29.79,NNW,338,7.4,7.4,22,-99.99,,---,-99.99,0.00,VWS V14.01,2013-04-15 14:43:00,
2013-04-15 09:49:00,47.5,10.6,29.79,NW,315,9.8,9.8,22,-99.99,,---,-99.99,0.00,VWS V14.01,2013-04-15 14:49:00,
2013-04-15 09:55:00,47.5,10.6,29.79,NW,315,9.8,9.8,22,-99.99,,---,-99.99,0.00,VWS V14.01,2013-04-15 14:55:00,
2013-04-15 10:00:00,47.1,10.2,29.79,NW,315,7.4,8.5,22,-99.99,,---,-99.99,0.00,VWS V14.01,2013-04-15 15:00:00,
2013-04-15 10:05:00,47.1,10.2,29.79,NNW,338,7.4,7.4,22,-99.99,,---,-99.99,0.00,VWS V14.01,2013-04-15 15:05:00,
2013-04-15 10:11:00,46.9,12.1,29.79,NNW,338,7.2,7.2,24,-99.99,,---,-99.99,0.00,VWS V14.01,2013-04-15 15:11:00,
2013-04-15 10:16:00,46.9,12.1,29.79,NW,315,10.1,10.1,24,-99.99,,---,-99.99,0.00,VWS V14.01,2013-04-15 15:16:00,
2013-04-15 10:21:00,46.6,14.4,29.79,NNW,338,9.8,10.1,27,-99.99,,---,-99.99,0.00,VWS V14.01,2013-04-15 15:21:00,
2013-04-15 10:26:00,46.6,11.7,29.79,North,0,6.0,8.5,24,-99.99,,---,-99.99,0.00,VWS V14.01,2013-04-15 15:26:00,
2013-04-15 10:32:00,46.4,11.6,29.79,NNW,338,7.8,7.8,24,-99.99,,---,-99.99,0.00,VWS V14.01,2013-04-15 15:32:00,
2013-04-15 10:38:00,46.4,11.6,29.79,NNE,22,5.6,9.0,24,-99.99,,---,-99.99,0.00,VWS V14.01,2013-04-15 15:38:00,
2013-04-15 10:43:00,46.4,11.6,29.79,NNE,22,5.6,5.6,24,-99.99,,---,-99.99,0.00,VWS V14.01,2013-04-15 15:43:00,
2013-04-15 10:48:00,46.6,9.8,29.79,NNE,22,10.1,10.1,22,-99.99,,---,-99.99,0.00,VWS V14.01,2013-04-15 15:48:00,
2013-04-15 10:53:00,46.9,12.1,29.79,NW,315,6.0,8.1,24,-99.99,,---,-99.99,0.00,VWS V14.01,2013-04-15 15:53:00,
2013-04-15 10:59:00,46.9,12.1,29.79,NNW,338,6.5,6.5,24,-99.99,,---,-99.99,0.00,VWS V14.01,2013-04-15 15:59:00,
2013-04-15 11:04:00,47.3,12.4,29.79,NNE,22,5.4,5.4,24,-99.99,,---,-99.99,0.00,VWS V14.01,2013-04-15 16:04:00,
2013-04-15 11:10:00,47.3,12.4,29.79,North,0,9.8,9.8,24,-99.99,,---,-99.99,0.00,VWS V14.01,2013-04-15 16:10:00,
2013-04-15 11:17:00,47.5,10.6,29.79,NNW,338,5.6,9.8,22,-99.99,,---,-99.99,0.00,VWS V14.01,2013-04-15 16:17:00,
2013-04-15 11:23:00,47.5,10.6,29.79,North,0,6.3,6.3,22,-99.99,,---,-99.99,0.00,VWS V14.01,2013-04-15 16:23:00,
2013-04-15 11:28:00,47.5,10.6,29.79,NNE,22,4.9,7.6,22,-99.99,,---,-99.99,0.00,VWS V14.01,2013-04-15 16:28:00,
2013-04-15 11:33:00,0.0,0.0,29.79,NNW,338,5.6,5.8,0,-99.99,,---,-99.99,0.00,VWS V14.01,2013-04-15 16:33:00,
2013-04-15 11:38:00,47.3,10.4,29.82,NNW,338,6.5,6.5,22,-99.99,,---,-99.99,0.00,VWS V14.01,2013-04-15 16:38:00,
2013-04-15 11:44:00,47.3,10.4,29.82,NNW,338,5.6,5.6,22,-99.99,,---,-99.99,0.00,VWS V14.01,2013-04-15 16:44:00,
2013-04-15 11:50:00,47.1,10.2,29.82,North,0,4.9,4.9,22,-99.99,,---,-99.99,0.00,VWS V14.01,2013-04-15 16:50:00,
2013-04-15 11:55:00,47.3,10.4,29.82,NW,315,5.8,5.8,22,-99.99,,---,-99.99,0.00,VWS V14.01,2013-04-15 16:55:00,
2013-04-15 12:01:00,47.3,10.4,29.82,North,0,8.7,8.7,22,-99.99,,---,-99.99,0.00,VWS V14.01,2013-04-15 17:01:00,
2013-04-15 12:07:00,46.9,10.1,29.82,NNW,338,7.6,8.7,22,-99.99,,---,-99.99,0.00,VWS V14.01,2013-04-15 17:07:00,
2013-04-15 12:13:00,46.9,10.1,29.82,NNW,338,8.7,8.7,22,-99.99,,---,-99.99,0.00,VWS V14.01,2013-04-15 17:13:00,
2013-04-15 12:19:00,46.9,10.1,29.82,NNW,338,10.3,10.3,22,-99.99,,---,-99.99,0.00,VWS V14.01,2013-04-15 17:19:00,
2013-04-15 12:21:00,46.9,10.1,29.82,NNW,338,10.3,10.3,22,-99.99,,---,-99.99,0.00,VWS V14.01,2013-04-15 17:21:00,
2013-04-15 12:22:00,46.9,10.1,29.82,NNW,338,10.3,10.3,22,-99.99,,---,-99.99,0.00,VWS V14.01,2013-04-15 17:22:00,
2013-04-15 12:25:00,46.9,10.1,29.82,NNW,338,7.6,7.6,22,-99.99,,---,-99.99,0.00,VWS V14.01,2013-04-15 17:25:00,
2013-04-15 12:31:00,46.9,10.1,29.85,NNW,338,6.5,7.4,22,-99.99,,---,-99.99,0.00,VWS V14.01,2013-04-15 17:31:00,
2013-04-15 12:36:00,46.9,10.1,29.85,NW,315,5.4,8.1,22,-99.99,,---,-99.99,0.00,VWS V14.01,2013-04-15 17:36:00,
2013-04-15 12:38:00,46.8,9.9,29.85,NW,315,10.5,10.5,22,-99.99,,---,-99.99,0.00,VWS V14.01,2013-04-15 17:38:00,
2013-04-15 12:44:00,46.8,9.9,29.85,NW,315,10.5,10.5,22,-99.99,,---,-99.99,0.00,VWS V14.01,2013-04-15 17:44:00,
2013-04-15 12:50:00,46.8,9.9,29.85,NNW,338,8.1,8.1,22,-99.99,,---,-99.99,0.00,VWS V14.01,2013-04-15 17:50:00,
2013-04-15 12:56:00,47.1,10.2,29.85,NNW,338,6.9,7.2,22,-99.99,,---,-99.99,0.00,VWS V14.01,2013-04-15 17:56:00,
2013-04-15 13:01:00,47.1,10.2,29.85,North,0,6.9,7.8,22,-99.99,,---,-99.99,0.00,VWS V14.01,2013-04-15 18:01:00,
2013-04-15 13:06:00,47.3,10.4,29.85,North,0,5.8,5.8,22,-99.99,,---,-99.99,0.00,VWS V14.01,2013-04-15 18:06:00,
2013-04-15 13:12:00,47.3,10.4,29.85,North,0,7.6,8.1,22,-99.99,,---,-99.99,0.00,VWS V14.01,2013-04-15 18:12:00,
2013-04-15 13:17:00,46.8,9.9,29.85,NNW,338,6.0,6.0,22,-99.99,,---,-99.99,0.00,VWS V14.01,2013-04-15 18:17:00,
2013-04-15 13:23:00,46.8,9.9,29.85,NNE,22,3.1,6.0,22,-99.99,,---,-99.99,0.00,VWS V14.01,2013-04-15 18:23:00,
2013-04-15 13:28:00,46.8,9.9,29.85,NNW,338,7.2,7.2,22,-99.99,,---,-99.99,0.00,VWS V14.01,2013-04-15 18:28:00,
2013-04-15 13:30:00,46.8,9.9,29.85,NNW,338,6.3,6.3,22,-99.99,,---,-99.99,0.00,VWS V14.01,2013-04-15 18:30:00,
2013-04-15 13:33:00,46.6,9.8,29.85,North,0,4.9,7.6,22,-99.99,,---,-99.99,0.00,VWS V14.01,2013-04-15 18:33:00,
2013-04-15 13:36:00,46.6,9.8,29.85,North,0,3.4,6.0,22,-99.99,,---,-99.99,0.00,VWS V14.01,2013-04-15 18:36:00,
2013-04-15 13:37:00,46.6,9.8,29.85,NNW,338,7.6,7.6,22,-99.99,,---,-99.99,0.00,VWS V14.01,2013-04-15 18:37:00,
2013-04-15 13:42:00,46.6,9.8,29.85,North,0,4.9,4.9,22,-99.99,,---,-99.99,0.00,VWS V14.01,2013-04-15 18:42:00,
2013-04-15 13:47:00,46.8,9.9,29.85,NNE,22,4.9,4.9,22,-99.99,,---,-99.99,0.00,VWS V14.01,2013-04-15 18:47:00,
2013-04-15 13:52:00,47.1,10.2,29.85,North,0,5.4,5.4,22,-99.99,,---,-99.99,0.00,VWS V14.01,2013-04-15 18:52:00,
2013-04-15 13:58:00,46.9,10.1,29.85,WNW,292,4.9,7.6,22,-99.99,,---,-99.99,0.00,VWS V14.01,2013-04-15 18:58:00,
2013-04-15 14:03:00,47.1,10.2,29.85,North,0,5.6,6.7,22,-99.99,,---,-99.99,0.00,VWS V14.01,2013-04-15 19:03:00,
2013-04-15 14:09:00,47.1,10.2,29.82,NNW,338,5.8,6.5,22,-99.99,,---,-99.99,0.00,VWS V14.01,2013-04-15 19:09:00,
2013-04-15 14:15:00,47.3,10.4,29.82,NNE,22,6.9,6.9,22,-99.99,,---,-99.99,0.00,VWS V14.01,2013-04-15 19:15:00,
2013-04-15 14:20:00,47.3,10.4,29.82,NNE,22,5.6,6.3,22,-99.99,,---,-99.99,0.00,VWS V14.01,2013-04-15 19:20:00,
2013-04-15 14:25:00,47.3,10.4,29.85,NNE,22,5.4,5.6,22,-99.99,,---,-99.99,0.00,VWS V14.01,2013-04-15 19:25:00,
2013-04-15 14:30:00,47.3,10.4,29.85,NNE,22,5.8,8.1,22,-99.99,,---,-99.99,0.00,VWS V14.01,2013-04-15 19:30:00,
2013-04-15 14:35:00,47.3,10.4,29.85,NNE,22,5.8,5.8,22,-99.99,,---,-99.99,0.00,VWS V14.01,2013-04-15 19:35:00,
2013-04-15 14:40:00,47.8,10.9,29.82,North,0,4.3,6.3,22,-99.99,,---,-99.99,0.00,VWS V14.01,2013-04-15 19:40:00,
2013-04-15 14:46:00,48.0,11.0,100.00,North,0,5.8,5.8,22,-99.99,,---,-99.99,0.00,VWS V14.01,2013-04-15 19:46:00,
2013-04-15 14:52:00,48.0,7.7,29.82,North,0,6.0,9.8,19,-99.99,,---,-99.99,0.00,VWS V14.01,2013-04-15 19:52:00,
2013-04-15 14:57:00,48.2,7.9,29.82,NNW,338,11.0,11.0,19,-99.99,,---,-99.99,0.00,VWS V14.01,2013-04-15 19:57:00,
2013-04-15 14:59:00,48.2,7.9,29.82,North,0,9.6,9.6,19,-99.99,,---,-99.99,0.00,VWS V14.01,2013-04-15 19:59:00,
2013-04-15 15:00:00,48.4,8.0,29.82,North,0,9.2,9.2,19,-99.99,,---,-99.99,0.00,VWS V14.01,2013-04-15 20:00:00,
2013-04-15 15:02:00,48.4,8.0,29.82,NNW,338,8.5,9.2,19,-99.99,,---,-99.99,0.00,VWS V14.01,2013-04-15 20:02:00,
2013-04-15 15:03:00,48.4,8.0,29.82,NNW,338,8.7,8.7,19,-99.99,,---,-99.99,0.00,VWS V14.01,2013-04-15 20:03:00,
2013-04-15 15:06:00,48.4,8.0,29.79,NNW,338,8.7,8.7,19,-99.99,,---,-99.99,0.00,VWS V14.01,2013-04-15 20:06:00,
2013-04-15 15:08:00,48.7,8.3,29.79,North,0,5.6,8.7,19,-99.99,,---,-99.99,0.00,VWS V14.01,2013-04-15 20:08:00,
2013-04-15 15:14:00,49.1,8.6,29.79,NNE,22,4.9,6.0,19,-99.99,,---,-99.99,0.00,VWS V14.01,2013-04-15 20:14:00,
2013-04-15 15:21:00,49.1,8.6,29.79,NNE,22,5.4,5.4,19,-99.99,,---,-99.99,0.00,VWS V14.01,2013-04-15 20:21:00,
2013-04-15 15:26:00,49.5,8.9,29.79,NNE,22,4.9,9.8,19,-99.99,,---,-99.99,0.00,VWS V14.01,2013-04-15 20:26:00,
2013-04-15 15:31:00,49.5,8.9,29.79,North,0,6.5,6.5,19,-99.99,,---,-99.99,0.00,VWS V14.01,2013-04-15 20:31:00,
2013-04-15 15:37:00,49.3,8.8,29.79,NNW,338,6.3,8.7,19,-99.99,,---,-99.99,0.00,VWS V14.01,2013-04-15 20:37:00,
2013-04-15 15:43:00,49.3,8.8,29.79,NNE,22,5.8,5.8,19,-99.99,,---,-99.99,0.00,VWS V14.01,2013-04-15 20:43:00,
2013-04-15 15:49:00,49.3,8.8,29.79,NNE,22,5.8,5.8,19,-99.99,,---,-99.99,0.00,VWS V14.01,2013-04-15 20:49:00,
2013-04-15 15:55:00,49.5,8.9,29.79,NNW,338,5.6,7.4,19,-99.99,,---,-99.99,0.00,VWS V14.01,2013-04-15 20:55:00,
2013-04-15 16:01:00,49.6,9.1,29.79,NNE,22,6.5,6.5,19,-99.99,,---,-99.99,0.00,VWS V14.01,2013-04-15 21:01:00,
2013-04-15 16:07:00,49.8,9.2,29.79,NNE,22,2.7,4.3,19,-99.99,,---,-99.99,0.00,VWS V14.01,2013-04-15 21:07:00,
2013-04-15 16:12:00,49.8,9.2,29.79,NNE,22,2.7,2.7,19,-99.99,,---,-99.99,0.00,VWS V14.01,2013-04-15 21:12:00,
2013-04-15 16:18:00,50.0,9.4,29.79,NNE,22,7.4,7.4,19,-99.99,,---,-99.99,0.00,VWS V14.01,2013-04-15 21:18:00,
2013-04-15 16:23:00,50.0,9.4,29.76,North,0,5.6,5.8,19,-99.99,,---,-99.99,0.00,VWS V14.01,2013-04-15 21:23:00,
2013-04-15 16:29:00,50.2,9.5,29.76,North,0,7.4,8.5,19,-99.99,,---,-99.99,0.00,VWS V14.01,2013-04-15 21:29:00,
2013-04-15 16:34:00,50.2,9.5,29.76,NNE,22,9.4,9.4,19,-99.99,,---,-99.99,0.00,VWS V14.01,2013-04-15 21:34:00,
2013-04-15 16:39:00,50.0,9.4,29.79,NNE,22,3.6,3.6,19,-99.99,,---,-99.99,0.00,VWS V14.01,2013-04-15 21:39:00,
2013-04-15 16:45:00,49.8,9.2,29.79,NNE,22,9.8,9.8,19,-99.99,,---,-99.99,0.00,VWS V14.01,2013-04-15 21:45:00,
2013-04-15 16:51:00,49.6,9.1,29.79,NNW,338,8.1,8.1,19,-99.99,,---,-99.99,0.00,VWS V14.01,2013-04-15 21:51:00,
2013-04-15 16:56:00,49.6,9.1,29.79,North,0,5.4,8.5,19,-99.99,,---,-99.99,0.00,VWS V14.01,2013-04-15 21:56:00,
2013-04-15 17:02:00,49.6,9.1,29.79,North,0,5.4,5.4,19,-99.99,,---,-99.99,0.00,VWS V14.01,2013-04-15 22:02:00,
2013-04-15 17:07:00,48.9,8.5,29.76,NNE,22,8.5,8.5,19,-99.99,,---,-99.99,0.00,VWS V14.01,2013-04-15 22:07:00,
2013-04-15 17:13:00,48.7,8.3,29.76,NNE,22,10.1,10.1,19,-99.99,,---,-99.99,0.00,VWS V14.01,2013-04-15 22:13:00,
2013-04-15 17:18:00,48.7,8.3,29.76,NNE,22,10.3,10.3,19,-99.99,,---,-99.99,0.00,VWS V14.01,2013-04-15 22:18:00,
2013-04-15 17:23:00,48.0,7.7,29.79,North,0,10.3,10.3,19,-99.99,,---,-99.99,0.00,VWS V14.01,2013-04-15 22:23:00,
2013-04-15 17:29:00,47.8,7.6,29.79,NNW,338,6.9,6.9,19,-99.99,,---,-99.99,0.00,VWS V14.01,2013-04-15 22:29:00,
2013-04-15 17:35:00,47.5,7.3,29.82,NNW,338,9.6,9.6,19,-99.99,,---,-99.99,0.00,VWS V14.01,2013-04-15 22:35:00,
2013-04-15 17:40:00,47.3,7.1,29.82,NNE,22,5.8,5.8,19,-99.99,,---,-99.99,0.00,VWS V14.01,2013-04-15 22:40:00,
2013-04-15 17:45:00,47.1,7.0,29.82,NNW,338,3.6,6.3,19,-99.99,,---,-99.99,0.00,VWS V14.01,2013-04-15 22:45:00,
2013-04-15 17:50:00,47.1,7.0,29.82,NNW,338,4.3,8.7,19,-99.99,,---,-99.99,0.00,VWS V14.01,2013-04-15 22:50:00,
2013-04-15 17:56:00,46.8,9.9,29.82,NNE,22,4.0,4.0,22,-99.99,,---,-99.99,0.00,VWS V14.01,2013-04-15 22:56:00,
2013-04-15 18:04:00,0.0,0.0,29.82,North,0,5.8,5.8,0,-99.99,,---,-99.99,0.00,VWS V14.01,2013-04-15 23:04:00,
2013-04-15 18:10:00,46.4,9.6,29.82,NNE,22,6.0,6.0,22,-99.99,,---,-99.99,0.00,VWS V14.01,2013-04-15 23:10:00,
2013-04-15 18:16:00,46.2,9.5,29.82,NNE,22,8.5,8.5,22,-99.99,,---,-99.99,0.00,VWS V14.01,2013-04-15 23:16:00,
2013-04-15 18:22:00,46.2,9.5,29.85,NNE,22,6.0,7.4,22,-99.99,,---,-99.99,0.00,VWS V14.01,2013-04-15 23:22:00,
2013-04-15 18:27:00,46.0,9.3,29.85,NNE,22,5.6,5.6,22,-99.99,,---,-99.99,0.00,VWS V14.01,2013-04-15 23:27:00,
2013-04-15 18:33:00,45.9,9.2,29.85,North,0,5.4,5.4,22,-99.99,,---,-99.99,0.00,VWS V14.01,2013-04-15 23:33:00,
2013-04-15 18:39:00,45.9,9.2,29.85,ENE,68,4.7,6.5,22,-99.99,,---,-99.99,0.00,VWS V14.01,2013-04-15 23:39:00,
2013-04-15 18:44:00,45.9,9.2,29.85,ENE,68,4.7,4.7,22,-99.99,,---,-99.99,0.00,VWS V14.01,2013-04-15 23:44:00,
2013-04-15 18:50:00,45.9,9.2,29.85,NNE,22,2.7,4.7,22,-99.99,,---,-99.99,0.00,VWS V14.01,2013-04-15 23:50:00,
2013-04-15 18:56:00,45.9,9.2,29.85,NNE,22,6.9,6.9,22,-99.99,,---,-99.99,0.00,VWS V14.01,2013-04-15 23:56:00,
2013-04-15 19:01:00,45.9,9.2,29.85,NNE,22,4.0,6.3,22,-99.99,,---,-99.99,0.00,VWS V14.01,2013-04-16 00:01:00,
2013-04-15 19:06:00,45.9,9.2,29.85,NNE,22,2.7,4.0,22,-99.99,,---,-99.99,0.00,VWS V14.01,2013-04-16 00:06:00,
2013-04-15 19:12:00,45.9,9.2,29.85,NNE,22,3.8,3.8,22,-99.99,,---,-99.99,0.00,VWS V14.01,2013-04-16 00:12:00,
2013-04-15 19:18:00,45.9,9.2,29.85,NNE,22,2.5,2.5,22,-99.99,,---,-99.99,0.00,VWS V14.01,2013-04-16 00:18:00,